Location: Unspecified
(0.0000°N, 0.0000°E)
Time: 09:16:23
(UTC+00:00)

Explorer 11/Cluster Stage 4 - Pass Details

Date: 23 July 2020
Orbit: 467 x 1259 km, 28.8° (Epoch: 03 August)

Event Time Altitude Azimuth Distance (km) Brightness Sun altitude
Rises 03:46:08 0° 260° (W) 3,150 - -32.7°
Reaches altitude 10° 03:49:12 10° 274° (W) 2,075 - -32.0°
Maximum altitude 03:52:59 23° 327° (NNW) 1,245 - -31.1°
Exits shadow 03:55:26 14° 12° (NNE) 1,540 8.4 -30.6°
Drops below altitude 10° 03:56:17 10° 21° (NNE) 1,771 8.9 -30.4°
Sets 03:58:40 0° 37° (NE) 2,579 10.1 -29.8°
